User: anonymous   Login
Location: Prague
(50.0830°N, 14.4670°E)
Time: 13:55:17
(UTC+01:00)
Language:

XW-2D - Orbit

View from above orbital plane
View from above orbital plane
View from above satellite
View from above satellite

Ground track
Ground track

The orbit data is extracted from the following two-line orbital elements,

1 40907U 15049J   21340.08092876  .00002405  00000-0  12263-3 0  9997
2 40907  97.4899 340.2527 0012389 313.2575 116.9147 15.17665507343620
Epoch (UTC): 06 December 2021 01:56:32
Eccentricity: 0.0012389
inclination: 97.4899°
perigee height: 504 km
apogee height: 521 km
right ascension of ascending node: 340.2527°
argument of perigee: 313.2575°
revolutions per day: 15.17665507
mean anomaly at epoch: 116.9147°
orbit number at epoch: 34362

The dashed part of the orbit path shows where the satellite is in the earth's shadow,  

DLR